Regional Weather Roundup
Issued by NWS

Home | Current Version | Previous Version | Text Only | Print | Product List | Glossary Off
Versions: 1 2 3 4 5 6 7 8 9 10 11 12 13 14 15 16 17 18 19 20 21 22 23 24 25 26 27 28 29 30 31 32 33 34 35 36 37 38 39 40 41 42 43 44 45 46 47 48 49 50

000
ASUS43 KDTX 181101
RWRMI
MICHIGAN HOURLY REGIONAL WEATHER ROUNDUP
NATIONAL WEATHER SERVICE DETROIT/PONTIAC MI
700 AM EDT SAT APR 18 2015

NOTE: "FAIR" INDICATES FEW OR NO CLOUDS BELOW 12,000 FEET WITH NO
SIGNIFICANT WEATHER AND/OR OBSTRUCTION TO VISIBILITY.

MIZ047>049-052>055-059>063-066>070-074>076-081>083-181200-
SOUTHEAST LOWER MICHIGAN

CITY           SKY/WX    TMP DP  RH WIND       PRES   REMARKS
ADRIAN         PTCLDY    53  44  71 CALM      30.04S
ALMA           CLEAR     47  40  76 NW3       30.04R
ANN ARBOR      PTCLDY    42  40  92 CALM      30.02S
BAD AXE        CLEAR     43  41  92 CALM      30.02R
CARO           CLEAR     40  38  94 CALM      30.02R
DETROIT CITY   PTCLDY    53  42  66 SW5       30.02R
DETROIT        PTCLDY    51  42  71 CALM      30.03R
FLINT          PTCLDY    48  40  73 CALM      30.02R
GROSSE ILE     PTCLDY    46  45  93 CALM      30.01S FOG
HILLSDALE      PTCLDY    56  42  59 CALM      30.04S
HOWELL         MOCLDY    50  40  69 SW5       30.03R

CITY           SKY/WX    TMP DP  RH WIND       PRES   REMARKS
JACKSON        PTCLDY    46  41  82 CALM      30.03S
LAMBERTVILLE   PTCLDY    50  43  76 CALM      30.04S
LANSING        MOCLDY    54  40  59 W3        30.03R
LAPEER         FAIR      41  40  95 CALM      30.02R
MASON          PTCLDY    51  40  67 CALM      30.03S
MONROE         PTCLDY    46  45  93 CALM      30.02R
PONTIAC        MOCLDY    50  41  71 CALM      30.01R
PORT HOPE        N/A     48  40  73 VRB7      29.98R
PORT HURON     PTCLDY    43  41  93 CALM      30.01R FOG
TRI CITIES     CLEAR     50  40  68 W6        30.03R
TROY           MOCLDY    56  40  55 W7        30.03R
SAGINAW HB     PTCLDY    45  41  87 CALM      30.02R
$$
MIZ043>046-050>051-056>058-064>065-071>073-077>080-181200-
SOUTHWEST LOWER MICHIGAN

CITY           SKY/WX    TMP DP  RH WIND       PRES   REMARKS
BATTLE CREEK   MOCLDY    56  42  59 S5        30.03S
BENTON HARBOR  CLEAR     57  46  66 W5        30.02S
BIG RAPIDS     CLEAR     42  38  86 N6        30.05R
COLDWATER      MOCLDY    50  45  81 CALM      30.03S
FREMONT        FAIR      44  38  78 CALM      30.03R
HOLLAND        PTCLDY    53  43  68 W5        30.03R
GRAND RAPIDS   MOCLDY    48  41  76 CALM      30.03R
IONIA          FAIR      52  41  66 W5        30.02S
KALAMAZOO      PTCLDY    48  44  86 S3        30.03S
LUDINGTON      CLEAR     46  38  76 N6        30.08R
MARSHALL       CLEAR     44  40  86 CALM      30.03R
MOUNT PLEASANT CLEAR     46  40  80 W3        30.02S
MUSKEGON       MOCLDY    45  39  79 CALM      30.04R
SOUTH HAVEN    PTCLDY    59  47  63 W5        30.02S
$$
MIZ016>042-181200-
NORTHERN LOWER MICHIGAN

CITY           SKY/WX    TMP DP  RH WIND       PRES   REMARKS
ALPENA         CLEAR     46  35  65 NW8       30.04R
BEAVER ISLAND  CLEAR     41  32  71 N9G21     30.10R
BELLAIRE       CLEAR     36  34  92 N6        30.10R WCI  31
CADILLAC       CLEAR     48  35  61 N8        30.06R
CHARLEVOIX     CLEAR     39  32  76 N3        30.13R
FRANKFORT      CLEAR     45  32  59 N8G18     30.10R
GAYLORD        CLEAR     43  34  70 NW5       30.06R
GRAYLING       CLEAR     40  34  78 W3        30.06R
HARBOR SPRINGS CLEAR     36  31  82 CALM      30.08R
MANISTEE       CLEAR     39  37  93 N5        30.09R
OSCODA         CLEAR     45  38  77 NW7       30.01R
PELLSTON       CLEAR     39  30  70 NW8       30.08R WCI  33
ROGERS CITY    CLEAR     45  32  60 W10       30.06R
TRAVERSE CITY  CLEAR     45  33  63 N9        30.10R
$$
MIZ007>008-015-181200-
EASTERN UPPER MICHIGAN

CITY           SKY/WX    TMP DP  RH WIND       PRES   REMARKS
KINROSS        CLEAR     37  30  75 N15       30.06R WCI  28
MACKINAC ISLAN CLEAR     41  29  61 N9G16     30.07R
NEWBERRY       CLEAR     37  32  84 N5        30.11R WCI  33
S. S. MARIE    CLEAR     41  28  60 N10       30.06R
$$
MIZ004>006-011>014-085-181200-
CENTRAL UPPER MICHIGAN

CITY           SKY/WX    TMP DP  RH WIND       PRES   REMARKS
MANISTIQUE     CLEAR     38  35  89 N12       30.12R WCI  30
ESCANABA       CLEAR     39  34  81 N7        30.15R WCI  34
MENOMINEE      CLEAR     45  34  65 N14       30.13R
SAWYER-GWINN   MOCLDY    37  34  87 N22G29    30.15R WCI  27
$$
MIZ001>003-009>011-084-181200-
WESTERN UPPER MICHIGAN

CITY           SKY/WX    TMP DP  RH WIND       PRES   REMARKS
IRON MOUNTAIN  CLEAR     39  32  76 N10       30.16R WCI  32
HOUGHTON       CLOUDY    37  32  82 CALM      30.21R
COPPER HARBOR    N/A     36  32  85 N7        30.22R WCI  30
IRONWOOD       PTCLDY    37  32  81 E15       30.17R WCI  28
$$

ABBREVIATIONS USED IN REMARKS
   TC - TEMPERATURE IN CELSIUS
  WCI - WIND CHILL INDEX
   HX - HEAT INDEX
  VSB - VISIBILITY




USA.gov is the U.S. government's official web portal to all federal, state and local government web resources and services.